Regional Weather Roundup
Issued by NWS Albany, NY

Home | Current Version | Previous Version | Graphics & Text | Print | Product List | Glossary Off
Versions: 1 2 3 4 5 6 7 8 9 10 11 12 13 14 15 16 17 18 19 20 21 22 23 24 25 26 27 28 29 30 31 32 33 34 35 36 37 38 39 40 41 42 43 44 45 46 47 48 49 50

365
ASUS41 KALY 201510
RWRALY

NEW YORK STATE HOURLY WEATHER ROUNDUP
NATIONAL WEATHER SERVICE ALBANY NY
1000 AM EST MON FEB 20 2017

NOTE: "FAIR" INDICATES FEW OR NO CLOUDS BELOW 12,000 FEET WITH NO
SIGNIFICANT WEATHER AND/OR NO OBSTRUCTIONS TO VISIBILITY.

NYZ032-033-038>043-046>054-057>066-NYZ062>081-082-084-201600-
EAST


CITY           SKY/WX    TMP DP  RH WIND       PRES   REMARKS
ALBANY         MOSUNNY   38  23  55 NW13      30.22R WCI  30
GLENS FALLS    SUNNY     36  18  48 N13       30.23R WCI  27
POUGHKEEPSIE   SUNNY     42  27  55 N8        30.19R
NEWBURGH       SUNNY     45  32  61 CALM      30.19R
MONTGOMERY     SUNNY     47  25  42 N7        30.17R
WHITE PLAINS   MOSUNNY   46  30  53 W8        30.17R
ISLIP          SUNNY     48  32  53 N14       30.17R
NEW YORK CITY  SUNNY     48  32  53 NW10      30.19R
CENTRAL PARK   SUNNY     47  30  51 NW9       30.21R
$$

NYZ005>009-017-018-044>046-055-056-201600-
CENTRAL


CITY           SKY/WX    TMP DP  RH WIND       PRES   REMARKS
FULTON         SUNNY     33  21  61 N12       30.33S WCI  24
SYRACUSE       MOSUNNY   32  19  58 NW12      30.32S WCI  23
ROME           SUNNY     31  18  58 NW6       30.31R WCI  25
ELMIRA         CLOUDY    36  26  67 VRB3      30.30R
BINGHAMTON     SUNNY     32  22  66 N9        30.23R WCI  24
MONTICELLO     SUNNY     37  19  48 NW16G25   30.19S WCI  28
$$

NYZ026>034-041>043-087-201600-
NORTH


CITY           SKY/WX    TMP DP  RH WIND       PRES   REMARKS
WATERTOWN      SUNNY     32  19  58 N12       30.33R WCI  23
FORT DRUM      NOT AVBL
MASSENA        SUNNY     29  13  51 NW10      30.36R WCI  20
SARANAC LAKE   SUNNY     26  10  50 N6        30.20R WCI  19
PLATTSBURGH    SUNNY     31  15  52 N17       30.29R WCI  19
$$

NYZ001>004-010>016-019>021-085-201600-
WEST


CITY           SKY/WX    TMP DP  RH WIND       PRES   REMARKS
NIAGARA FALLS  SUNNY     38  27  64 E10       30.35R WCI  31
BUFFALO        MOSUNNY   36  28  73 E9        30.34R WCI  29
DUNKIRK        MOSUNNY   36  32  85 N8        30.33S WCI  30
JAMESTOWN      CLOUDY    36  28  75 CALM      30.28R
WELLSVILLE     CLOUDY    35  30  82 VRB6      30.26S WCI  30
ROCHESTER      MOSUNNY   36  22  56 NE10      30.36R WCI  28
PENN YAN       CLOUDY    34  24  67 N5        30.32R WCI  30
$$

             KEY
       WCI = WIND CHILL INDEX
       VSB = VISIBILITY
       HX  = HEAT INDEX
$$




USA.gov is the U.S. government's official web portal to all federal, state and local government web resources and services.